{"data":{"norad_id":48881,"intl_designator":"2021-059C","name":"STARLINK-3005","alt_names":[],"object_type":"PAYLOAD","status":"ACTIVE","operator":null,"country":"US","launch_date":"2021-06-30","launch_site_code":"AFETR","launch_vehicle":null,"mission":null,"orbit_class":"UNKNOWN","rcs_meters":null,"size_class":null,"mass_kg":null,"dimensions":null,"purposes":["comms"],"wikipedia_slug":null,"has_3d_model":false,"image_url":null,"decayed_at":null,"tle_current":{"epoch":"2026-05-25T01:34:46.524864Z","epoch_age_seconds":63363,"freshness":"FRESH","line1":"1 48881U 21059C   26145.06581626  .00000229  00000+0  22453-4 0  9990","line2":"2 48881  97.6585 270.5735 0001011 108.1740 251.9594 15.01258140270263","mean_motion":15.0125814,"eccentricity":0.0001011,"inclination_deg":97.6585,"raan_deg":270.5735,"arg_perigee_deg":108.174,"mean_anomaly_deg":251.9594,"bstar":2.2453e-5,"rev_number":27026,"period_min":95.91954652116,"perigee_km":562.31383008065,"apogee_km":563.71733113245,"semimajor_km":6941.1525806066,"source":"CELESTRAK","updated_at":"2026-05-25T13:38:16.764421Z"}}}